Regional Weather Roundup
Issued by NWS

Home | Current Version | Previous Version | Graphics & Text | Print | Product List | Glossary On
Versions: 1 2 3 4 5 6 7 8 9 10 11 12 13 14 15 16 17 18 19 20 21 22 23 24 25 26 27 28 29 30 31 32 33 34 35 36 37 38 39 40 41 42 43 44 45 46 47 48 49 50
000
ASUS43 KDMX 191507
RWRIA

WEATHER ROUNDUP FOR IOWA
NATIONAL WEATHER SERVICE DES MOINES IA
1000 AM CDT FRI SEP 19 2014

NOTE: "FAIR" INDICATES FEW OR NO CLOUDS BELOW 12,000 FEET WITH NO
SIGNIFICANT WEATHER AND/OR OBSTRUCTIONS TO VISIBILITY.

* - THESE STATIONS ARE NOT NWS STATIONS...THUS NOT UNDER NWS
QUALITY CONTROL.  THEY ALSO DO NOT REPORT WEATHER SUCH
AS PRECIPITATION OR FOG.

IAZ001>003-012>014-020>022-031>034-043>046-191600-
   NORTHWEST IOWA

CITY           SKY/WX    TMP DP  RH WIND       PRES   REMARKS
CARROLL *      SUNNY     66  61  82 S15G23    29.92F
CHEROKEE *     CLOUDY    66  63  88 S18G24    29.86F
DENISON *      PTSUNNY   66  63  88 S13G25    29.90R
LE MARS *      CLOUDY    66  63  88 S14G23    29.84S
ORANGE CITY *  CLOUDY    66  63  88 S16G25    29.83F
SHELDON *      CLOUDY    64  63  94 S17G28    29.83F
SIOUX CITY     CLOUDY    69  63  81 S17G28    29.85F
SPENCER        CLOUDY    64  59  83 S10       29.86F
STORM LAKE *   MOSUNNY   66  64  94 S16G25    29.88F
$$

IAZ055>058-069>071-079>083-090>094-191600-
   SOUTHWEST IOWA

CITY           SKY/WX    TMP DP  RH WIND       PRES   REMARKS
ATLANTIC *     CLOUDY    64  61  88 S14G21    29.95S
AUDUBON *      SUNNY     66  59  77 S16G25    29.95S
CLARINDA *     CLOUDY    64  63  94 S9        30.00S
COUNCIL BLFS * CLOUDY    64  64 100 S14       29.93S FOG
CRESTON *      CLOUDY    63  61  94 S16       30.00S
HARLAN  *      CLOUDY    64  63  94 S17G23    29.97S
LAMONI         CLOUDY    61  60  97 S12G17    30.03R FOG
RED OAK *      CLOUDY    64  63  94 S15       29.96  FOG
SHENANDOAH *   CLOUDY    66  63  88 S12       29.98S FOG
$$

IAZ047>049-059>061-072>074-084-191600-
   CENTRAL IOWA

CITY           SKY/WX    TMP DP  RH WIND       PRES   REMARKS
AMES           SUNNY     66  60  81 S13G22    29.98S
ANKENY *       SUNNY     66  61  82 S15G23    29.99S
CHARITON *     SUNNY     66  61  82 S15       30.03S
DES MOINES     PTSUNNY   67  60  78 S20G26    29.99F
GRINNELL*      SUNNY     63  55  77 S15       30.03F
KNOXVILLE *    SUNNY     64  59  82 S14       30.01F
MARSHALLTOWN   SUNNY     65  56  72 S17G23    30.00F
PELLA *        MOSUNNY   64  57  77 S9        30.04S
PERRY *        CLOUDY    66  61  82 S10G18    29.97S
$$

IAZ004>006-015-016-023>025-035-036-191600-
   NORTH CENTRAL IOWA

CITY           SKY/WX    TMP DP  RH WIND       PRES   REMARKS
ALGONA *       PTSUNNY   64  59  82 S17       29.90F
CLARION *        N/A     64  59  82 S21G30    29.94F
ESTHERVILLE    CLOUDY    61  59  93 S18G29    29.85F FOG
FORT DODGE *   MOSUNNY   64  57  77 S16G23    29.94S
MASON CITY     CLOUDY    62  56  80 S14G22    29.96F
FOREST CITY *  PTSUNNY   64  59  82 S20G26    29.93F
IOWA FALLS *     N/A     64  57  77 S17G24    29.99F
$$

IAZ007>011-017>019-026>030-037>042-050>054-066-191600-
   NORTHEAST IOWA

CITY           SKY/WX    TMP DP  RH WIND       PRES   REMARKS
CEDAR RAPIDS   SUNNY     63  55  75 SE9G20    30.05F
CHARLES CITY * SUNNY     63  54  72 S16       30.00R
CLINTON *      SUNNY     61  54  77 S9        30.14S
DECORAH *      SUNNY     61  54  77 S8G20     30.01F
DUBUQUE        SUNNY     60  54  80 S13       30.09F
MONTICELLO *   SUNNY     64  55  72 S9G18     30.07F
OELWEIN *      SUNNY     63  54  72 S14G22    30.03F
WATERLOO       SUNNY     63  53  70 S13       30.01S
$$

IAZ064-065-067-068-078-191600-
   EAST CENTRAL IOWA

CITY           SKY/WX    TMP DP  RH WIND       PRES   REMARKS
DAVENPORT      SUNNY     64  52  64 S10       30.11S
IOWA CITY      SUNNY     62  55  77 S9        30.08F
MT. PLEASANT * SUNNY     66  54  63 SE7       30.10S
MUSCATINE *    SUNNY     64  54  68 S13       30.10S
QUAD CITIES    SUNNY     64  53  67 S10       30.11S
$$

IAZ062-063-075>077-085>089-095>099-191600-
   SOUTHEAST IOWA

CITY           SKY/WX    TMP DP  RH WIND       PRES   REMARKS
BURLINGTON     SUNNY     65  53  65 S9        30.11R
FAIRFIELD *    SUNNY     64  54  68 S13G20    30.07F
FORT MADISON * SUNNY     66  55  68 S8        30.11S
KEOKUK *       SUNNY     66  55  68 S7        30.10S
OSKALOOSA *      N/A     64  55  72 S16       30.05F
CENTERVILLE *  SUNNY     64  61  88 S10       30.07S
OTTUMWA        SUNNY     64  54  69 S10G20    30.05F
WASHINGTON *   SUNNY     66  57  72 S12       30.07F
$$

ABBREVIATIONS USED IN REMARKS
   TC - TEMPERATURES IN CELSIUS
  WCI - WIND CHILL INDEX
   HX - HEAT INDEX
  VSB - VISIBILITY
$$




USA.gov is the U.S. government's official web portal to all federal, state and local government web resources and services.